{"data":{"norad_id":60588,"intl_designator":"2024-150F","name":"STARLINK-31994","alt_names":[],"object_type":"PAYLOAD","status":"ACTIVE","operator":null,"country":"US","launch_date":"2024-08-20","launch_site_code":"AFETR","launch_vehicle":null,"mission":null,"orbit_class":"UNKNOWN","rcs_meters":null,"size_class":null,"mass_kg":null,"dimensions":null,"purposes":["comms"],"wikipedia_slug":null,"has_3d_model":false,"image_url":null,"decayed_at":null,"tle_current":{"epoch":"2026-05-24T18:14:08.397888Z","epoch_age_seconds":95909,"freshness":"FRESH","line1":"1 60588U 24150F   26144.75981942  .00001065  00000+0  42661-4 0  9995","line2":"2 60588  53.1619 312.5826 0001169  95.3820 264.7316 15.34389102 99626","mean_motion":15.34389102,"eccentricity":0.0001169,"inclination_deg":53.1619,"raan_deg":312.5826,"arg_perigee_deg":95.382,"mean_anomaly_deg":264.7316,"bstar":4.2661e-5,"rev_number":9962,"period_min":93.848424635122,"perigee_km":461.93593354084,"apogee_km":463.5353295621,"semimajor_km":6840.8726315515,"source":"CELESTRAK","updated_at":"2026-05-25T13:38:19.279068Z"}}}